| time (UTC) | temp C | wind direction | speed KPH | gust KPH | rain 1hr cm | rain 24hr cm | rain mn cm | humidity % | barometer mb |
| 20260502190031 | 10 | 213 | 0.0 | 4.8 | 0.00 | 0.18 | 0.18 | 83 | 1009.3 |
| 20260502184512 | 11 | 134 | 0.0 | 6.4 | 0.00 | 0.18 | 0.18 | 80 | 1009.3 |
| 20260502183012 | 11 | 133 | 0.0 | 4.8 | 0.00 | 0.18 | 0.18 | 78 | 1009.3 |
| 20260502181556 | 12 | 141 | 0.0 | 12.9 | 0.00 | 0.18 | 0.18 | 74 | 1009.4 |
| 20260502163049 | 10 | 205 | 0.0 | 4.8 | 0.00 | 0.18 | 0.18 | 85 | 1010.0 |
| 20260502161534 | 10 | 133 | 0.0 | 3.2 | 0.00 | 0.18 | 0.18 | 85 | 1010.1 |
| 20260502151551 | 10 | 160 | 0.0 | 1.6 | 0.00 | 0.18 | 0.18 | 89 | 1010.8 |
| 20260502123125 | 7 | 225 | 0.0 | 0.0 | 0.08 | 0.15 | 0.15 | 95 | 1011.6 |
| 20260502121543 | 7 | 225 | 0.0 | 0.0 | 0.05 | 0.13 | 0.13 | 95 | 1011.6 |
| 20260502114518 | 7 | 225 | 0.0 | 0.0 | 0.03 | 0.08 | 0.08 | 95 | 1011.2 |
| 20260502113018 | 7 | 225 | 0.0 | 0.0 | 0.03 | 0.08 | 0.08 | 95 | 1010.9 |
| 20260502111617 | 6 | 225 | 0.0 | 0.0 | 0.05 | 0.08 | 0.08 | 94 | 1010.8 |
| 20260502110058 | 6 | 225 | 0.0 | 0.0 | 0.05 | 0.08 | 0.08 | 94 | 1011.2 |
| 20260502104556 | 6 | 122 | 0.0 | 1.6 | 0.03 | 0.05 | 0.05 | 94 | 1010.8 |
| 20260502103037 | 6 | 169 | 0.0 | 0.0 | 0.03 | 0.05 | 0.05 | 94 | 1010.5 |
| 20260502101540 | 6 | 169 | 0.0 | 0.0 | 0.00 | 0.03 | 0.03 | 94 | 1010.5 |
| 20260502071532 | 7 | 218 | 0.0 | 3.2 | 0.00 | 0.00 | 0.00 | 83 | 1010.1 |
| 20260502070015 | 7 | 205 | 0.0 | 0.0 | 0.00 | 0.00 | 0.00 | 82 | 1010.2 |
| 20260502064517 | 7 | 229 | 0.0 | 1.6 | 0.00 | 0.00 | 0.00 | 82 | 1010.5 |
| 20260502063101 | 7 | 192 | 0.0 | 6.4 | 0.00 | 0.00 | 0.00 | 82 | 1010.6 |
| 20260502061556 | 8 | 204 | 0.0 | 0.0 | 0.00 | 0.00 | 0.00 | 78 | 1010.3 |
| 20260502060043 | 8 | 195 | 0.0 | 3.2 | 0.00 | 0.00 | 0.00 | 74 | 1010.7 |
| 20260502054540 | 8 | 85 | 0.0 | 4.8 | 0.00 | 0.00 | 0.00 | 73 | 1010.5 |
| 20260502053020 | 8 | 145 | 0.0 | 4.8 | 0.00 | 0.00 | 0.00 | 72 | 1010.5 |
| 20260502051523 | 8 | 115 | 0.0 | 1.6 | 0.00 | 0.00 | 0.00 | 70 | 1010.5 |
| 20260502050003 | 9 | 114 | 0.0 | 1.6 | 0.00 | 0.00 | 0.00 | 68 | 1010.6 |
| 20260502044600 | 9 | 200 | 0.0 | 4.8 | 0.00 | 0.00 | 0.00 | 67 | 1010.6 |
| 20260502043046 | 9 | 111 | 0.0 | 4.8 | 0.00 | 0.00 | 0.00 | 66 | 1010.5 |
| 20260502041547 | 9 | 174 | 0.0 | 4.8 | 0.00 | 0.00 | 0.00 | 64 | 1010.6 |
| 20260502040024 | 9 | 108 | 0.0 | 1.6 | 0.00 | 0.00 | 0.00 | 64 | 1010.8 |
| 20260502034523 | 9 | 125 | 0.0 | 3.2 | 0.00 | 0.00 | 0.00 | 63 | 1010.8 |
| 20260502033014 | 9 | 205 | 0.0 | 3.2 | 0.00 | 0.00 | 0.00 | 61 | 1010.9 |
| 20260502031506 | 9 | 134 | 0.0 | 1.6 | 0.00 | 0.00 | 0.00 | 61 | 1010.9 |
| 20260502030047 | 9 | 125 | 0.0 | 1.6 | 0.00 | 0.00 | 0.00 | 61 | 1010.9 |
| 20260502024606 | 10 | 119 | 0.0 | 1.6 | 0.00 | 0.00 | 0.00 | 59 | 1010.8 |
| 20260502023028 | 10 | 205 | 0.0 | 4.8 | 0.00 | 0.00 | 0.00 | 56 | 1010.8 |
| 20260502021526 | 9 | 144 | 0.0 | 3.2 | 0.00 | 0.00 | 0.00 | 55 | 1010.7 |
| 20260502020008 | 9 | 174 | 0.0 | 1.6 | 0.00 | 0.00 | 0.00 | 55 | 1010.6 |
| 20260502014507 | 9 | 174 | 0.0 | 1.6 | 0.00 | 0.00 | 0.00 | 54 | 1010.5 |
| 20260502013049 | 9 | 174 | 0.0 | 0.0 | 0.00 | 0.00 | 0.00 | 53 | 1010.4 |
| 20260502011549 | 9 | 174 | 0.0 | 0.0 | 0.00 | 0.00 | 0.00 | 52 | 1010.3 |
| 20260502010033 | 10 | 174 | 0.0 | 0.0 | 0.00 | 0.00 | 0.00 | 52 | 1010.2 |
| 20260502004546 | 10 | 174 | 0.0 | 1.6 | 0.00 | 0.00 | 0.00 | 50 | 1010.1 |
| 20260502003011 | 10 | 174 | 0.0 | 1.6 | 0.00 | 0.00 | 0.00 | 49 | 1009.9 |
| 20260502001510 | 11 | 174 | 0.0 | 0.0 | 0.00 | 0.00 | 0.00 | 47 | 1009.8 |
| 20260502000106 | 11 | 174 | 0.0 | 0.0 | 0.00 | 0.00 | 0.00 | 44 | 1009.4 |
| 20260501234557 | 12 | 174 | 0.0 | 0.0 | 0.00 | 0.00 | 0.00 | 42 | 1009.3 |
| 20260501233057 | 12 | 222 | 0.0 | 1.6 | 0.00 | 0.00 | 0.00 | 40 | 1009.1 |
| 20260501231556 | 13 | 217 | 0.0 | 6.4 | 0.00 | 0.03 | 0.00 | 39 | 1008.8 |
| 20260501230055 | 13 | 170 | 0.0 | 1.6 | 0.00 | 0.03 | 0.00 | 38 | 1008.6 |
| 20260501224554 | 13 | 193 | 0.0 | 1.6 | 0.00 | 0.03 | 0.00 | 38 | 1008.5 |
| 20260501223104 | 14 | 169 | 0.0 | 3.2 | 0.00 | 0.03 | 0.00 | 39 | 1008.5 |
| 20260501221558 | 15 | 359 | 0.0 | 8.0 | 0.00 | 0.03 | 0.00 | 37 | 1008.6 |
| 20260501220052 | 15 | 167 | 0.0 | 3.2 | 0.00 | 0.03 | 0.00 | 36 | 1008.5 |
| 20260501214548 | 15 | 160 | 3.2 | 9.7 | 0.00 | 0.03 | 0.00 | 35 | 1008.4 |
| 20260501213044 | 15 | 184 | 0.0 | 4.8 | 0.00 | 0.03 | 0.00 | 38 | 1008.3 |
| 20260501211529 | 15 | 345 | 0.0 | 6.4 | 0.00 | 0.03 | 0.00 | 37 | 1008.2 |
| 20260501210027 | 15 | 43 | 0.0 | 9.7 | 0.00 | 0.03 | 0.00 | 36 | 1008.3 |
| 20260501204510 | 16 | 248 | 0.0 | 12.9 | 0.00 | 0.03 | 0.00 | 33 | 1008.1 |
| 20260501203049 | 16 | 208 | 0.0 | 3.2 | 0.00 | 0.03 | 0.00 | 38 | 1008.1 |
| 20260501201548 | 17 | 220 | 0.0 | 6.4 | 0.00 | 0.03 | 0.00 | 36 | 1008.0 |
| 20260501200028 | 17 | 249 | 0.0 | 11.3 | 0.00 | 0.03 | 0.00 | 38 | 1008.1 |
| 20260501194534 | 17 | 122 | 0.0 | 8.0 | 0.00 | 0.03 | 0.00 | 33 | 1008.0 |
| 20260501193008 | 17 | 209 | 0.0 | 6.4 | 0.00 | 0.03 | 0.00 | 36 | 1008.3 |
| 20260501191505 | 16 | 205 | 0.0 | 9.7 | 0.00 | 0.03 | 0.00 | 36 | 1008.3 |